Location: Unspecified
(0.0000°N, 0.0000°E)
Time: 11:33:51
(UTC+00:00)

Vanguard 1 Rocket - Pass Details

Date: 21 November 2019
Orbit: 650 x 4226 km, 34.3° (Epoch: 07 December)

Event Time Altitude Azimuth Distance (km) Brightness Sun altitude
Rises 09:06:31 0° 322° (NW) 4,076 10.4 46.2°
Reaches altitude 10° 09:08:52 10° 328° (NNW) 3,406 10.1 46.8°
Maximum altitude 09:17:37 51° 43° (NE) 2,470 10.3 48.6°
Drops below altitude 10° 09:34:35 10° 114° (ESE) 6,335 12.5 52.2°
Sets 09:40:50 0° 118° (ESE) 7,828 12.7 53.5°
